Main page
METAR-TAF:

METAR-TAF

Airports :

Rajkot Airport

Rajkot, India

latitude: 22-18N, longitude: 070-47E, elevation: 134 m

Current weather observation

The report was made 3 hours and 33 minutes ago, at 14:00 UTC
Wind 5 kt from the North
Temperature 32°C
Humidity 18%
Pressure 1012 hPa
Visibility: 6000 m

METAR: VARK 221400Z 36005KT 6000 NSC 32/05 Q1012

Time: 23:03 (17:33 UTC)

Forecast

The report was made 3 hours and 33 minutes ago, at 14:00 UTC
Forecast valid from 22 at 15 UTC to 22 at 24 UTC
Wind 5 kt from the Northeast
Visibility: 5000 m

TAF: VARK 221400Z 2215/2224 05005KT 5000 FUHZ NSC

Weather observations and forecasts of more than 4000 airports (METAR and TAF reports).

The available stations are represented by yellow and red dots on the map.

Hover mouse over dot to see the name of the station.

Then click to see weather observations and forecasts.

To change the map : click on the green buttons with a black cross to zoom in, on the green button with a dash to zoom out, or on the green arrows for adjacent maps.


METAR-TAF: